Location: Newark
(21.1200°N, 73.4000°E)
Time: 00:59:12
(UTC+00:00)

Vanguard 2 Rocket - Pass Details

Date: 19 January 2020
Orbit: 554 x 3327 km, 32.9° (Epoch: 20 February)

Event Time Altitude Azimuth Distance (km) Brightness Sun altitude
Exits shadow 00:31:05 28° 259° (W) 1,304 7.2 -17.4°
Maximum altitude 00:33:37 70° 337° (NNW) 856 6.6 -16.9°
Drops below altitude 10° 00:40:42 10° 60° (ENE) 3,147 10.3 -15.3°
Sets 00:44:27 0° 63° (ENE) 4,561 11.2 -14.4°
